H1 CPF 2 NER 2024 5 31 9 152 01 glonass144 H2 2207501 9144 52984 2024 5 31 0 0 0 2024 6 3 23 45 0 900 1 1 0 0 0 1 H9 10 0 60461 0.00000 0 5648514.890 21037596.714 -13242036.036 10 0 60461 900.00000 0 5779750.420 22505537.453 -10489648.760 10 0 60461 1800.00000 0 5992257.578 23609226.436 -7533149.682 10 0 60461 2700.00000 0 6233386.947 24324787.079 -4430099.090 10 0 60461 3600.00000 0 6447778.285 24641358.220 -1240885.666 10 0 60461 4500.00000 0 6579934.196 24561439.983 1972456.958 10 0 60461 5400.00000 0 6576804.022 24100695.435 5147463.715 10 0 60461 6300.00000 0 6390267.623 23287217.723 8222457.215 10 0 60461 7200.00000 0 5979413.200 22160294.950 11137748.016 10 0 60461 8100.00000 0 5312512.436 20768726.140 13836792.366 10 0 60461 9000.00000 0 4368609.343 19168760.280 16267284.889 10 0 60461 9900.00000 0 3138655.769 17421745.871 18382165.338 10 0 60461 10800.00000 0 1626145.842 15591590.051 20140520.637 10 0 60461 11700.00000 0 -152777.353 13742133.721 21508365.777 10 0 60461 12600.00000 0 -2169747.459 11934551.996 22459289.631 10 0 60461 13500.00000 0 -4385115.524 10224887.665 22974954.543 10 0 60461 14400.00000 0 -6749367.094 8661819.310 23045441.241 10 0 60461 15300.00000 0 -9204957.685 7284755.677 22669433.438 10 0 60461 16200.00000 0 -11688491.497 6122334.151 21854239.262 10 0 60461 17100.00000 0 -14133154.340 5191384.381 20615649.443 10 0 60461 18000.00000 0 -16471301.171 4496398.941 18977634.893 10 0 60461 18900.00000 0 -18637092.317 4029532.063 16971889.056 10 0 60461 19800.00000 0 -20569070.218 3771125.722 14637223.063 10 0 60461 20700.00000 0 -22212570.620 3690740.670 12018824.368 10 0 60461 21600.00000 0 -23521868.632 3748649.029 9167392.095 10 0 60461 22500.00000 0 -24461970.621 3897725.860 6138164.680 10 0 60461 23400.00000 0 -25009977.176 4085660.287 2989857.730 10 0 60461 24300.00000 0 -25155959.881 4257393.125 -216468.105 10 0 60461 25200.00000 0 -24903314.668 4357678.211 -3418587.752 10 0 60461 26100.00000 0 -24268576.201 4333658.965 -6554318.097 10 0 60461 27000.00000 0 -23280700.319 4137350.777 -9562726.584 10 0 60461 27900.00000 0 -21979843.875 3727923.361 -12385318.297 10 0 60461 28800.00000 0 -20415692.551 3073685.416 -14967177.910 10 0 60461 29700.00000 0 -18645406.359 2153686.180 -17258043.782 10 0 60461 30600.00000 0 -16731268.735 958864.551 -19213292.742 10 0 60461 31500.00000 0 -14738137.742 -507304.618 -20794815.820 10 0 60461 32400.00000 0 -12730806.267 -2228696.223 -21971767.427 10 0 60461 33300.00000 0 -10771381.953 -4176959.373 -22721172.970 10 0 60461 34200.00000 0 -8916796.810 -6312464.581 -23028382.699 10 0 60461 35100.00000 0 -7216550.897 -8585735.546 -22887362.612 10 0 60461 36000.00000 0 -5710784.595 -10939306.852 -22300816.462 10 0 60461 36900.00000 0 -4428760.107 -13309930.784 -21280136.176 10 0 60461 37800.00000 0 -3387815.466 -15631041.565 -19845181.401 10 0 60461 38700.00000 0 -2592834.340 -17835374.269 -18023892.248 10 0 60461 39600.00000 0 -2036253.071 -19857628.860 -15851742.655 10 0 60461 40500.00000 0 -1698603.557 -21637067.724 -13371045.048 10 0 60461 41400.00000 0 -1549567.775 -23119937.699 -10630120.014 10 0 60461 42300.00000 0 -1549498.017 -24261614.865 -7682347.591 10 0 60461 43200.00000 0 -1651337.027 -25028382.041 -4585119.257 10 0 60461 44100.00000 0 -1802855.222 -25398764.558 -1398711.835 10 0 60461 45000.00000 0 -1949108.799 -25364368.583 1814893.844 10 0 60461 45900.00000 0 -2035013.214 -24930187.517 4993225.535 10 0 60461 46800.00000 0 -2007921.896 -24114364.558 8074538.995 10 0 60461 47700.00000 0 -1820100.111 -22947422.591 10999019.751 10 0 60461 48600.00000 0 -1430988.744 -21470994.989 13709943.476 10 0 60461 49500.00000 0 -809161.998 -19736111.754 16154772.379 10 0 60461 50400.00000 0 66103.668 -17801113.828 18286166.645 10 0 60461 51300.00000 0 1203715.396 -15729283.524 20062892.013 10 0 60461 52200.00000 0 2600151.348 -13586290.326 21450606.954 10 0 60461 53100.00000 0 4239375.385 -11437558.462 22422515.396 10 0 60461 54000.00000 0 6093282.760 -9345665.269 22959873.696 10 0 60461 54900.00000 0 8122658.676 -7367877.541 23052343.288 10 0 60461 55800.00000 0 10278610.460 -5553926.993 22698183.235 10 0 60461 56700.00000 0 12504414.714 -3944115.720 21904279.703 10 0 60461 57600.00000 0 14737703.886 -2567828.802 20686012.113 10 0 60461 58500.00000 0 16912902.674 -1442514.422 19066958.525 10 0 60461 59400.00000 0 18963814.407 -573172.585 17078445.467 10 0 60461 60300.00000 0 20826251.156 47627.290 14758950.112 10 0 60461 61200.00000 0 22440599.188 439201.404 12153365.376 10 0 60461 62100.00000 0 23754213.705 631702.514 9312140.994 10 0 60461 63000.00000 0 24723543.395 664610.938 6290316.115 10 0 60461 63900.00000 0 25315896.100 584829.089 3146461.142 10 0 60461 64800.00000 0 25510771.424 444459.698 -58451.395 10 0 60461 65700.00000 0 25300703.843 298361.406 -3262225.587 10 0 60461 66600.00000 0 24691580.072 201585.082 -6402647.771 10 0 60461 67500.00000 0 23702416.385 206799.580 -9418695.598 10 0 60461 68400.00000 0 22364604.149 361816.431 -12251726.741 10 0 60461 69300.00000 0 20720654.266 707319.104 -14846623.657 10 0 60461 70200.00000 0 18822492.343 1274894.101 -17152871.609 10 0 60461 71100.00000 0 16729375.428 2085448.557 -19125548.399 10 0 60461 72000.00000 0 14505517.191 3148082.855 -20726205.981 10 0 60461 72900.00000 0 12217520.754 4459467.598 -21923626.298 10 0 60461 73800.00000 0 9931726.510 6003753.002 -22694436.213 10 0 60461 74700.00000 0 7711585.910 7753016.264 -23023569.148 10 0 60461 75600.00000 0 5615171.032 9668229.725 -22904564.144 10 0 60461 76500.00000 0 3692924.028 11700710.528 -22339696.189 10 0 60461 77400.00000 0 1985740.431 13793992.060 -21339935.000 10 0 60461 78300.00000 0 523466.161 15886039.447 -19924732.815 10 0 60461 79200.00000 0 -676129.415 17911716.690 -18121645.094 10 0 60461 80100.00000 0 -1607862.130 19805402.121 -15965791.425 10 0 60461 81000.00000 0 -2279103.144 21503642.395 -13499167.142 10 0 60461 81900.00000 0 -2709213.172 22947733.402 -10769819.237 10 0 60461 82800.00000 0 -2928466.184 24086119.384 -7830903.032 10 0 60461 83700.00000 0 -2976509.722 24876509.202 -4739638.589 10 0 60461 84600.00000 0 -2900428.626 25287620.644 -1556187.949 10 0 60461 85500.00000 0 -2752495.796 25300479.485 1657524.005 10 0 60462 0.00000 0 -2587706.810 24909219.089 4839020.853 10 0 60462 900.00000 0 -2461204.073 24121347.221 7926495.406 10 0 60462 1800.00000 0 -2425700.868 22957470.306 10860011.163 10 0 60462 2700.00000 0 -2529014.786 21450486.999 13582666.391 10 0 60462 3600.00000 0 -2811815.448 19644286.298 16041693.891 10 0 60462 4500.00000 0 -3305681.693 17592005.494 18189477.060 10 0 60462 5400.00000 0 -4031550.049 15353921.486 19984462.993 10 0 60462 6300.00000 0 -4998619.574 12995063.817 21391955.921 10 0 60462 7200.00000 0 -6203758.902 10582648.824 22384776.804 10 0 60462 8100.00000 0 -7631440.247 8183441.204 22943777.656 10 0 60462 9000.00000 0 -9254203.314 5861151.665 23058201.887 10 0 60462 9900.00000 0 -11033630.141 3673977.490 22725884.748 10 0 60462 10800.00000 0 -12921790.966 1672386.565 21953290.781 10 0 60462 11700.00000 0 -14863101.847 -102764.859 20755387.910 10 0 60462 12600.00000 0 -16796517.879 -1621704.087 19155360.583 10 0 60462 13500.00000 0 -18657971.965 -2866743.974 17184167.063 10 0 60462 14400.00000 0 -20382958.860 -3832774.565 14879948.654 10 0 60462 15300.00000 0 -21909157.863 -4527224.881 12287301.296 10 0 60462 16200.00000 0 -23178985.645 -4969497.170 9456422.461 10 0 60462 17100.00000 0 -24141973.087 -5189897.720 6442148.765 10 0 60462 18000.00000 0 -24756866.847 -5228109.300 3302901.913 10 0 60462 18900.00000 0 -24993367.376 -5131269.510 99562.653 10 0 60462 19800.00000 0 -24833429.880 -4951736.008 -3105705.996 10 0 60462 20700.00000 0 -24272072.639 -4744632.973 -6250663.560 10 0 60462 21600.00000 0 -23317657.602 -4565282.678 -9274201.544 10 0 60462 22500.00000 0 -21991630.114 -4466631.190 -12117533.720 10 0 60462 23400.00000 0 -20327727.438 -4496777.756 -14725343.618 10 0 60462 24300.00000 0 -18370688.061 -4696713.332 -17046866.375 10 0 60462 25200.00000 0 -16174514.848 -5098365.055 -19036883.328 10 0 60462 26100.00000 0 -13800364.033 -5723030.671 -20656609.400 10 0 60462 27000.00000 0 -11314147.816 -6580270.551 -21874455.523 10 0 60462 27900.00000 0 -8783950.404 -7667305.620 -22666650.829 10 0 60462 28800.00000 0 -6277365.332 -8968948.122 -23017712.080 10 0 60462 29700.00000 0 -3858865.106 -10458069.632 -22920750.899 10 0 60462 30600.00000 0 -1587312.894 -12096587.948 -22377612.491 10 0 60462 31500.00000 0 486279.953 -13836932.425 -21398842.860 10 0 60462 32400.00000 0 2320657.187 -15623926.991 -20003484.924 10 0 60462 33300.00000 0 3885802.675 -17397012.246 -18218707.261 10 0 60462 34200.00000 0 5163945.699 -19092713.451 -16079272.619 10 0 60462 35100.00000 0 6150045.444 -20647250.616 -13626856.560 10 0 60462 36000.00000 0 6851735.625 -21999180.694 -10909229.663 10 0 60462 36900.00000 0 7288733.113 -23091960.294 -7979319.636 10 0 60462 37800.00000 0 7491737.208 -23876320.645 -4894172.192 10 0 60462 38700.00000 0 7500867.871 -24312354.467 -1713831.676 10 0 60462 39600.00000 0 7363710.722 -24371226.615 1499835.810 10 0 60462 40500.00000 0 7133053.291 -24036436.510 4684352.959 10 0 60462 41400.00000 0 6864409.860 -23304579.440 7777851.041 10 0 60462 42300.00000 0 6613440.959 -22185575.188 10720274.450 10 0 60462 43200.00000 0 6433377.654 -20702355.043 13454546.161 10 0 60462 44100.00000 0 6372560.074 -18890021.042 15927671.398 10 0 60462 45000.00000 0 6472194.379 -16794513.408 18091758.302 10 0 60462 45900.00000 0 6764422.665 -14470842.441 19904936.537 10 0 60462 46800.00000 0 7270786.789 -11980958.967 21332156.962 10 0 60462 47700.00000 0 8001150.291 -9391352.041 22345858.121 10 0 60462 48600.00000 0 8953123.316 -6770473.365 22926487.921 10 0 60462 49500.00000 0 10112014.415 -4186094.533 23062871.697 10 0 60462 50400.00000 0 11451311.309 -1702705.596 22752420.599 10 0 60462 51300.00000 0 12933670.886 620938.711 22001177.045 10 0 60462 52200.00000 0 14512377.768 2734024.973 20823696.787 10 0 60462 53100.00000 0 16133211.515 4595549.537 19242769.827 10 0 60462 54000.00000 0 17736645.692 6175773.431 17288985.177 10 0 60462 54900.00000 0 19260288.211 7457204.748 15000147.134 10 0 60462 55800.00000 0 20641462.159 8435068.713 12420553.329 10 0 60462 56700.00000 0 21819820.179 9117246.753 9600147.429 10 0 60462 57600.00000 0 22739883.671 9523687.648 6593561.741 10 0 60462 58500.00000 0 23353400.691 9685315.787 3459067.248 10 0 60462 59400.00000 0 23621423.516 9642482.503 257450.660 10 0 60462 60300.00000 0 23516018.098 9443025.665 -2949160.339 10 0 60462 61200.00000 0 23021532.622 9140019.361 -6098501.022 10 0 60462 62100.00000 0 22135370.608 8789308.734 -9129379.353 10 0 60462 63000.00000 0 20868234.590 8446934.381 -11982867.759 10 0 60462 63900.00000 0 19243828.575 8166555.658 -14603453.273 10 0 60462 64800.00000 0 17298030.244 7996982.511 -16940123.175 10 0 60462 65700.00000 0 15077566.195 7979921.092 -18947364.415 10 0 60462 66600.00000 0 12638244.536 8148029.503 -20586056.779 10 0 60462 67500.00000 0 10042817.848 8523367.023 -21824241.901 10 0 60462 68400.00000 0 7358565.110 9116303.558 -22637752.722 10 0 60462 69300.00000 0 4654693.149 9924936.624 -23010690.697 10 0 60462 70200.00000 0 1999665.729 10935041.681 -22935741.159 10 0 60462 71100.00000 0 -541428.503 12120559.041 -22414320.378 10 0 60462 72000.00000 0 -2909359.574 13444597.770 -21456551.162 10 0 60462 72900.00000 0 -5052987.874 14860915.072 -20081067.237 10 0 60462 73800.00000 0 -6931151.178 16315809.312 -18314650.006 10 0 60462 74700.00000 0 -8514128.703 17750347.174 -16191704.661 10 0 60462 75600.00000 0 -9784621.764 19102831.088 -13753585.845 10 0 60462 76500.00000 0 -10738211.084 20311402.698 -11047786.180 10 0 60462 77400.00000 0 -11383272.904 21316672.156 -8127003.854 10 0 60462 78300.00000 0 -11740359.111 22064261.859 -5048108.005 10 0 60462 79200.00000 0 -11841069.282 22507156.827 -1871022.789 10 0 60462 80100.00000 0 -11726464.180 22607762.122 1342447.199 10 0 60462 81000.00000 0 -11445089.534 22339580.295 4529826.371 10 0 60462 81900.00000 0 -11050695.445 21688438.082 7629188.035 10 0 60462 82800.00000 0 -10599749.302 20653210.856 10580360.253 10 0 60462 83700.00000 0 -10148848.526 19246014.705 13326093.769 10 0 60462 84600.00000 0 -9752143.260 17491858.525 15813169.227 10 0 60462 85500.00000 0 -9458878.139 15427771.223 17993422.409 10 0 60463 0.00000 0 -9311156.810 13101441.171 19824668.125 10 0 60463 900.00000 0 -9342022.915 10569423.633 21271506.729 10 0 60463 1800.00000 0 -9573937.888 7894993.968 22305996.440 10 0 60463 2700.00000 0 -10017718.550 5145731.366 22908183.046 10 0 60463 3600.00000 0 -10671978.757 2390935.677 23066475.447 10 0 60463 4500.00000 0 -11523097.991 -301017.817 22777861.928 10 0 60463 5400.00000 0 -12545718.134 -2865277.279 22047963.586 10 0 60463 6300.00000 0 -13703747.909 -5242960.820 20890924.294 10 0 60463 7200.00000 0 -14951833.541 -7383350.875 19329139.378 10 0 60463 8100.00000 0 -16237235.002 -9245747.120 17392827.832 10 0 60463 9000.00000 0 -17502030.416 -10800902.508 15119455.608 10 0 60463 9900.00000 0 -18685557.414 -12031983.929 12553020.185 10 0 60463 10800.00000 0 -19726990.182 -12935018.455 9743209.104 10 0 60463 11700.00000 0 -20567944.951 -13518807.214 6744447.609 10 0 60463 12600.00000 0 -21155004.961 -13804310.882 3614852.869 10 0 60463 13500.00000 0 -21442058.910 -13823532.709 415114.182 10 0 60463 14400.00000 0 -21392354.106 -13617946.083 -2792679.679 10 0 60463 15300.00000 0 -20980177.123 -13236532.749 -5946243.458 10 0 60463 16200.00000 0 -20192090.006 -12733514.392 -8984305.366 10 0 60463 17100.00000 0 -19027668.476 -12165873.431 -11847800.267 10 0 60463 18000.00000 0 -17499709.391 -11590767.971 -14481022.381 10 0 60463 18900.00000 0 -15633896.975 -11062950.602 -16832714.604 10 0 60463 19800.00000 0 -13467940.079 -10632300.696 -18857072.645 10 0 60463 20700.00000 0 -11050215.125 -10341575.290 -20514643.841 10 0 60463 21600.00000 0 -8437970.175 -10224474.413 -21773102.662 10 0 60463 22500.00000 0 -5695164.156 -10304103.525 -22607887.343 10 0 60463 23400.00000 0 -2890030.685 -10591898.924 -23002684.837 10 0 60463 24300.00000 0 -92467.609 -11087062.402 -22949754.328 10 0 60463 25200.00000 0 2628639.323 -11776529.842 -22450082.665 10 0 60463 26100.00000 0 5208047.244 -12635475.785 -21513368.414 10 0 60463 27000.00000 0 7586631.981 -13628333.236 -20157834.599 10 0 60463 27900.00000 0 9713605.890 -14710286.022 -18409873.528 10 0 60463 28800.00000 0 11548385.469 -15829170.879 -16303530.555 10 0 60463 29700.00000 0 13062031.306 -16927708.824 -13879836.819 10 0 60463 30600.00000 0 14238200.965 -17945971.352 -11186004.119 10 0 60463 31500.00000 0 15073575.991 -18823976.745 -8274498.021 10 0 60463 32400.00000 0 15577746.541 -19504306.231 -5202007.794 10 0 60463 33300.00000 0 15772560.186 -19934628.805 -2028333.991 10 0 60463 34200.00000 0 15690964.129 -20070027.435 1184783.747 10 0 60463 35100.00000 0 15375391.585 -19875027.916 4374874.932 10 0 60463 36000.00000 0 14875762.268 -19325244.433 7479958.127 10 0 60463 36900.00000 0 14247183.064 -18408572.310 10439748.010 10 0 60463 37800.00000 0 13547447.367 -17125877.800 13196825.695 10 0 60463 38700.00000 0 12834439.602 -15491156.108 15697749.444 10 0 60463 39600.00000 0 12163554.952 -13531151.312 17894084.428 10 0 60463 40500.00000 0 11585243.146 -11284454.323 19743332.188 10 0 60463 41400.00000 0 11142779.346 -8800116.681 21209742.744 10 0 60463 42300.00000 0 10870355.251 -6135837.896 22264994.755 10 0 60463 43200.00000 0 10791569.722 -3355801.324 22888731.884 10 0 60463 44100.00000 0 10918381.354 -528247.741 23068946.246 10 0 60463 45000.00000 0 11250566.095 2277113.809 22802202.604 10 0 60463 45900.00000 0 11775702.053 4991751.919 22093699.820 10 0 60463 46800.00000 0 12469681.860 7550907.479 20957168.786 10 0 60463 47700.00000 0 13297731.236 9896031.209 19414608.887 10 0 60463 48600.00000 0 14215891.539 11976964.680 17495867.691 10 0 60463 49500.00000 0 15172904.924 13753775.867 15238071.294 10 0 60463 50400.00000 0 16112423.959 15198174.192 12684915.379 10 0 60463 51300.00000 0 16975453.902 16294447.212 9885829.567 10 0 60463 52200.00000 0 17702925.903 17039880.566 6895030.120 10 0 60463 53100.00000 0 18238293.480 17444644.020 3770478.304 10 0 60463 54000.00000 0 18530043.256 17531148.580 572763.787 10 0 60463 54900.00000 0 18534014.003 17332901.586 -2636065.903 10 0 60463 55800.00000 0 18215425.621 16892907.852 -5793707.348 10 0 60463 56700.00000 0 17550531.480 16261683.991 -8838811.366 10 0 60463 57600.00000 0 16527823.031 15494969.605 -11712177.525 10 0 60463 58500.00000 0 15148734.222 14651231.913 -14357909.373 10 0 60463 59400.00000 0 13427814.188 13789069.401 -16724507.387 10 0 60463 60300.00000 0 11392359.012 12964624.403 -18765877.819 10 0 60463 61200.00000 0 9081516.139 12229114.416 -20442237.175 10 0 60463 62100.00000 0 6544897.322 11626586.929 -21720894.210 10 0 60463 63000.00000 0 3840756.664 11191993.181 -22576893.749 10 0 60463 63900.00000 0 1033808.791 10949662.798 -22993509.373 10 0 60463 64800.00000 0 -1807222.639 10912244.287 -22962575.030 10 0 60463 65700.00000 0 -4612224.442 11080156.602 -22484648.806 10 0 60463 66600.00000 0 -7312372.565 11441575.345 -21569005.368 10 0 60463 67500.00000 0 -9842758.501 11972954.450 -20233456.997 10 0 60463 68400.00000 0 -12144854.143 12640061.425 -18504006.479 10 0 60463 69300.00000 0 -14168712.419 13399482.341 -16414338.515 10 0 60463 70200.00000 0 -15874812.199 14200532.697 -14005159.562 10 0 60463 71100.00000 0 -17235470.868 14987492.940 -11323399.110 10 0 60463 72000.00000 0 -18235766.247 15702073.463 -8421288.351 10 0 60463 72900.00000 0 -18873930.305 16286004.079 -5355334.720 10 0 60463 73800.00000 0 -19161199.549 16683637.640 -2185213.021 10 0 60463 74700.00000 0 -19121130.010 16844456.852 1027404.366 10 0 60463 75600.00000 0 -18788407.449 16725377.619 4220054.506 10 0 60463 76500.00000 0 -18207204.772 16292751.013 7330703.799 10 0 60463 77400.00000 0 -17429157.633 15523979.001 10298956.237 10 0 60463 78300.00000 0 -16511045.106 14408675.642 13067226.068 10 0 60463 79200.00000 0 -15512274.367 12949324.858 15581851.961 10 0 60463 80100.00000 0 -14492276.114 11161407.237 17794131.222 10 0 60463 81000.00000 0 -13507920.623 9072990.670 19661254.616 10 0 60463 81900.00000 0 -12611062.901 6723801.907 21147124.616 10 0 60463 82800.00000 0 -11846319.431 4163817.679 22223042.362 10 0 60463 83700.00000 0 -11249168.881 1451433.602 22868251.331 10 0 60463 84600.00000 0 -10844455.259 -1348713.725 23070328.450 10 0 60463 85500.00000 0 -10645355.092 -4168182.032 22825416.207 10 0 60464 0.00000 0 -10652850.842 -6937316.195 22138292.159 10 0 60464 900.00000 0 -10855731.863 -9587894.072 21022274.534 10 0 60464 1800.00000 0 -11231122.358 -12055713.685 19498966.822 10 0 60464 2700.00000 0 -11745514.181 -14283021.015 17597844.727 10 0 60464 3600.00000 0 -12356261.487 -16220675.517 15355693.608 10 0 60464 4500.00000 0 -13013475.054 -17829966.169 12815906.035 10 0 60464 5400.00000 0 -13662237.415 -19084003.254 10027651.995 10 0 60464 6300.00000 0 -14245046.432 -19968628.597 7044936.662 10 0 60464 7200.00000 0 -14704385.016 -20482806.582 3925562.967 10 0 60464 8100.00000 0 -14985309.096 -20638479.720 730018.199 10 0 60464 9000.00000 0 -15037944.695 -20459894.706 -2479694.364 10 0 60464 9900.00000 0 -14819788.301 -19982427.019 -5641256.403 10 0 60464 10800.00000 0 -14297712.610 -19250953.219 -8693244.793 10 0 60464 11700.00000 0 -13449591.694 -18317839.206 -11576327.396 10 0 60464 12600.00000 0 -12265475.428 -17240629.062 -14234420.728 10 0 60464 13500.00000 0 -10748261.807 -16079531.892 -16615786.440 10 0 60464 14400.00000 0 -8913836.823 -14894812.748 -18674044.742 10 0 60464 15300.00000 0 -6790673.989 -13744197.933 -20369084.403 10 0 60464 16200.00000 0 -4418908.393 -12680404.435 -21667851.124 10 0 60464 17100.00000 0 -1848922.305 -11748898.045 -22544998.444 10 0 60464 18000.00000 0 860499.921 -10985975.082 -22983388.089 10 0 60464 18900.00000 0 3644371.751 -10417248.905 -22974429.683 10 0 60464 19800.00000 0 6433968.207 -10056605.291 -22518252.850 10 0 60464 20700.00000 0 9159451.220 -9905670.850 -21623708.108 10 0 60464 21600.00000 0 11752547.450 -9953816.877 -20308196.237 10 0 60464 22500.00000 0 14149167.094 -10178698.299 -18597329.274 10 0 60464 23400.00000 0 16291854.478 -10547304.619 -16524429.585 10 0 60464 24300.00000 0 18131968.280 -11017477.905 -14129876.828 10 0 60464 25200.00000 0 19631500.494 -11539832.958 -11460315.629 10 0 60464 26100.00000 0 20764458.511 -12059997.597 -8567739.839 10 0 60464 27000.00000 0 21517753.123 -12521077.296 -5508471.720 10 0 60464 27900.00000 0 21891556.289 -12866238.866 -2342056.696 10 0 60464 28800.00000 0 21899114.913 -13041302.807 869903.927 10 0 60464 29700.00000 0 21566030.068 -12997233.738 4064958.634 10 0 60464 30600.00000 0 20929033.653 -12692422.808 7181025.434 10 0 60464 31500.00000 0 20034315.702 -12094665.060 10157601.166 10 0 60464 32400.00000 0 18935474.336 -11182747.918 12936936.402 10 0 60464 33300.00000 0 17691175.940 -9947583.673 15465152.962 10 0 60464 34200.00000 0 16362624.933 -8392838.255 17693282.540 10 0 60464 35100.00000 0 15010949.950 -6535029.897 19578206.852 10 0 60464 36000.00000 0 13694616.153 -4403093.473 21083482.042 10 0 60464 36900.00000 0 12466971.728 -2037428.558 22180032.437 10 0 60464 37800.00000 0 11374030.478 511529.509 22846701.556 10 0 60464 38700.00000 0 10452582.127 3185156.785 23070650.943 10 0 60464 39600.00000 0 9728708.062 5918830.262 22847600.200 10 0 60464 40500.00000 0 9216763.231 8644370.180 22181904.469 10 0 60464 41400.00000 0 8918865.556 11292635.251 21086468.295 10 0 60464 42300.00000 0 8824913.320 13796164.767 19582497.678 10 0 60464 43200.00000 0 8913129.141 16091759.578 17699094.738 10 0 60464 44100.00000 0 9151107.583 18122896.384 15472702.197 10 0 60464 45000.00000 0 9497322.524 19841876.243 12946407.465 10 0 60464 45900.00000 0 9903031.356 21211618.991 10169118.712 10 0 60464 46800.00000 0 10314496.455 22207029.440 7194627.721 10 0 60464 47700.00000 0 10675430.871 22815878.671 4080576.663 10 0 60464 48600.00000 0 10929565.537 23039163.601 887347.949 10 0 60464 49500.00000 0 11023229.743 22890929.558 -2323101.944 10 0 60464 50400.00000 0 10907835.704 22397562.887 -5488442.320 10 0 60464 51300.00000 0 10542161.597 21596582.882 -8547178.553 10 0 60464 52200.00000 0 9894335.581 20534983.338 -11439849.097 10 0 60464 53100.00000 0 8943435.570 19267193.167 -14110185.536 10 0 60464 54000.00000 0 7680635.494 17852741.640 -16506212.581 10 0 60464 54900.00000 0 6109847.749 16353726.481 -18581266.054 10 0 60464 55800.00000 0 4247832.733 14832191.433 -20294908.430 10 0 60464 56700.00000 0 2123768.764 13347523.865 -21613723.590 10 0 60464 57600.00000 0 -221701.499 11953982.131 -22511974.820 10 0 60464 58500.00000 0 -2737909.887 10698457.002 -22972112.817 10 0 60464 59400.00000 0 -5366028.056 9618561.507 -22985123.446 10 0 60464 60300.00000 0 -8041282.475 8741129.656 -22550708.159 10 0 60464 61200.00000 0 -10695427.314 8081187.176 -21677293.258 10 0 60464 62100.00000 0 -13259372.525 7641437.362 -20381867.592 10 0 60464 63000.00000 0 -15665857.651 7412283.303 -18689651.623 10 0 60464 63900.00000 0 -17852059.778 7372384.926 -16633604.214 10 0 60464 64800.00000 0 -19762026.702 7489726.577 -14253776.742 10 0 60464 65700.00000 0 -21348833.633 7723149.059 -11596527.255 10 0 60464 66600.00000 0 -22576373.281 8024280.299 -8713610.366 10 0 60464 67500.00000 0 -23420704.749 8339781.730 -5661161.154 10 0 60464 68400.00000 0 -23870905.289 8613814.111 -2498593.548 10 0 60464 69300.00000 0 -23929390.094 8790617.132 712564.421 10 0 60464 70200.00000 0 -23611687.919 8817092.508 3909874.946 10 0 60464 71100.00000 0 -22945683.375 8645280.238 7031210.033 10 0 60464 72000.00000 0 -21970359.307 8234622.544 10015961.849 10 0 60464 72900.00000 0 -20734093.632 7553919.318 12806219.823 10 0 60464 73800.00000 0 -19292583.574 6582892.221 15347891.483 10 0 60464 74700.00000 0 -17706485.539 5313291.398 17591745.393 10 0 60464 75600.00000 0 -16038870.319 3749498.244 19494356.573 10 0 60464 76500.00000 0 -14352600.461 1908598.811 21018936.958 10 0 60464 77400.00000 0 -12707739.326 -180075.336 22136035.908 10 0 60464 78300.00000 0 -11159099.412 -2475920.000 22824098.499 10 0 60464 79200.00000 0 -9754031.236 -4928505.032 23069872.042 10 0 60464 80100.00000 0 -8530543.714 -7479435.445 22868654.059 10 0 60464 81000.00000 0 -7515832.962 -10064550.756 22224377.800 10 0 60464 81900.00000 0 -6725279.428 -12616372.620 21149534.121 10 0 60464 82800.00000 0 -6161953.929 -15066700.617 19664931.347 10 0 60464 83700.00000 0 -5816652.184 -17349250.010 17799297.477 10 0 60464 84600.00000 0 -5668455.679 -19402223.406 15588731.744 10 0 60464 85500.00000 0 -5685795.027 -21170710.664 13076015.242 99